Location: Marlborough
(51.4223°N, 1.7415°W)
Time: 07:59:49
(UTC+00:00)

ISS - Pass Details

Date: 27 November 2023
Orbit: 415 x 417 km, 51.6° (Epoch: 10 December)

Event Time Altitude Azimuth Distance (km) Brightness Sun altitude
Rises 18:50:32 0° 282° (WNW) 2,363 1.3 -25.0°
Reaches altitude 10° 18:52:38 10° 280° (W) 1,498 0.0 -25.3°
Enters shadow 18:54:31 30° 272° (W) 772 -1.9 -25.6°
